Погода в Крюкове

Россия / Пермский край     57°06′42″N   55°03′00″E
темп.,
°C
ветер,
м/с
пор.,
м/с
влажн.,
%
обл.,
%
осадки,
мм/ч
давл.,
гПа
погр.,
м
13 июня, вс
вс1323:00+14вюв6159067 0.1 1017394
02:00+14юв61576100 0.0 1017341
05:00+14юв5146677 0.0 1016292
08:00+16ююв61475100 0.6 1016450
11:00+18ююв71381100 1.3 1017615
14:00+21ю697243 0.1 10171101
17:00+22ю8107462 0.9 10171026
20:00+18ююв7148699 2.2 1017432
14 июня, пн
пн1423:00+15ююв349185 2.8 101873
02:00+14ююв339212 0.0 101760
05:00+13юв3390100 0.0 101853
08:00+17ююв477947 0.0 1018249
11:00+21ю566181 0.0 1017547
14:00+24ююз5658100 0.0 10171042
17:00+25ююз5762100 0.0 10161398
20:00+22ююз3681100 0.7 1016164
15 июня, вт
вт1523:00+18ююз358999 0.7 101674
02:00+17юз239492 2.3 101663
05:00+17ююз1192100 2.4 101611
08:00+19ю118963 0.1 101643
11:00+24ю336863 0.1 1015708
14:00+26ююз34595 0.0 10151291
17:00+25ю556498 0.1 1014610
20:00+22юв237899 0.3 101469
16 июня, ср
ср1623:00+18ююв2289100 0.8 101317
02:00+17ю359699 0.0 1013103
05:00+17зюз4109797 0.6 1013305
08:00+17юз279399 0.6 1014212
11:00+20ююз2688100 0.7 1014289
14:00+26ююз46555 0.0 10131439
17:00+27ю45545 0.0 10121329
20:00+25ю487172 0.1 1011304
17 июня, чт
чт1723:00+20ю338785 0.1 101135
02:00+18ююв228651 0.0 100912
05:00+17ю38865 0.5 1008123
08:00+20юз368071 1.1 1007241
11:00+22ссз5574100 1.6 1007812
14:00+19с9128193 0.1 1010680
17:00+19с8106652 0.3 10111342
20:00+18с611610 0.0 1013843